Williston, ND

12:39 AM CST on January 20, 2017 (GMT -0600)
Sloulin International

Weather History for KISN - September, 2013

Change the Weather History Date:

Friday, September 13, 2013

  Actual Average Record
Temperature  
Mean Temperature 66 °F 58 °F  
Max Temperature 85 °F 73 °F 90 °F (1969)
Min Temperature 47 °F 43 °F 25 °F (1970)
Degree Days  
Heating Degree Days 0 8  
Month to date heating degree days 7 76  
Since 1 July heating degree days 53 147  
Cooling Degree Days 1 1  
Month to date cooling degree days 68 20  
Year to date cooling degree days 395 449  
Growing Degree Days 15 (Base 50)    
Moisture  
Dew Point 50 °F    
Average Humidity 59    
Maximum Humidity 86    
Minimum Humidity 32    
Precipitation  
Precipitation 0.00 in 0.03 in 1.46 in (1954)
Month to date precipitation 1.32 0.48  
Year to date precipitation 17.21 11.60  
Snow  
Snow 0.00 in - - ()
Month to date snowfall 0.0  
Snow Depth 0.00 in    
Sea Level Pressure  
Sea Level Pressure 29.95 in    
Wind  
Wind Speed 5 mph (SSE)    
Max Wind Speed 16 mph    
Max Gust Speed 22 mph    
Visibility 10 miles    
Events      
T = Trace of Precipitation, MM = Missing Value Source: NWS Daily Summary

Daily Weather History Graph

Daily Weather History Graph

Search for Another Location

Airport or City:

Trip Planner

Search our weather history database for the weather conditions in past years. The results will help you decide how hot, cold, wet, or windy it might be!

Date:

Astronomy

Sep. 13, 2013 Rise Set
Actual Time 7:29 AM CDT 8:10 PM CDT
Civil Twilight 6:57 AM CDT 8:41 PM CDT
Nautical Twilight 6:20 AM CDT 9:19 PM CDT
Astronomical Twilight 5:40 AM CDT 9:58 PM CDT
Moon 4:22 PM CDT (9/13) 12:40 AM CDT (9/13)
Length of Visible Light 13h 44m
Length of Day
12h 41m
First Quarter, 61% of the Moon is Illuminated
Sep 13
First Quarter
Sep 19
Full
Sep 26
Last Quarter
Oct 4
New
Oct 11
First Quarter

Hourly Weather History & Observations

Time (CDT) Temp. Heat Index Dew Point Humidity Pressure Visibility Wind Dir Wind Speed Gust Speed Precip Events Conditions
12:52 AM 60.1 °F - 45.0 °F 57% 30.15 in 10.0 mi Calm Calm - N/A   Clear
1:52 AM 59.0 °F - 45.0 °F 60% 30.14 in 10.0 mi SSE 4.6 mph - N/A   Clear
2:52 AM 50.0 °F - 45.0 °F 83% 30.14 in 10.0 mi Calm Calm - N/A   Clear
3:52 AM 53.1 °F - 46.0 °F 77% 30.11 in 10.0 mi Calm Calm - N/A   Clear
4:52 AM 48.9 °F - 45.0 °F 86% 30.10 in 10.0 mi Calm Calm - N/A   Clear
5:52 AM 48.9 °F - 45.0 °F 86% 30.08 in 10.0 mi Calm Calm - N/A   Clear
6:52 AM 48.0 °F - 44.1 °F 86% 30.06 in 10.0 mi Calm Calm - N/A   Clear
7:52 AM 53.1 °F - 46.0 °F 77% 30.06 in 10.0 mi Calm Calm - N/A   Clear
8:52 AM 59.0 °F - 48.9 °F 69% 30.04 in 10.0 mi South 4.6 mph - N/A   Clear
9:52 AM 63.0 °F - 48.0 °F 58% 30.01 in 10.0 mi SSE 8.1 mph - N/A   Clear
10:52 AM 68.0 °F - 51.1 °F 55% 29.99 in 10.0 mi South 8.1 mph - N/A   Clear
11:52 AM 73.9 °F - 54.0 °F 50% 29.96 in 10.0 mi SSE 5.8 mph - N/A   Clear
12:52 PM 78.1 °F - 54.0 °F 43% 29.93 in 10.0 mi SSE 8.1 mph - N/A   Clear
1:52 PM 82.9 °F 82.1 °F 55.9 °F 39% 29.90 in 10.0 mi Variable 6.9 mph - N/A   Clear
2:52 PM 84.9 °F 83.2 °F 53.1 °F 33% 29.87 in 10.0 mi South 12.7 mph - N/A   Clear
3:52 PM 84.0 °F - 52.0 °F 33% 29.85 in 10.0 mi SSE 10.4 mph 18.4 mph N/A   Clear
4:52 PM 84.0 °F - 52.0 °F 33% 29.83 in 10.0 mi South 11.5 mph - N/A   Clear
5:52 PM 82.9 °F - 51.1 °F 33% 29.83 in 10.0 mi South 8.1 mph - N/A   Clear
6:52 PM 81.0 °F - 52.0 °F 36% 29.81 in 10.0 mi SSE 8.1 mph - N/A   Clear
7:52 PM 77.0 °F - 55.0 °F 47% 29.79 in 10.0 mi SE 6.9 mph - N/A   Clear
8:52 PM 71.1 °F - 55.0 °F 57% 29.79 in 10.0 mi East 4.6 mph - N/A   Clear
9:52 PM 71.1 °F - 55.0 °F 57% 29.78 in 10.0 mi SSE 5.8 mph - N/A   Clear
10:52 PM 69.1 °F - 55.0 °F 61% 29.78 in 10.0 mi SSE 5.8 mph - N/A   Clear
11:52 PM 68.0 °F - 54.0 °F 61% 29.78 in 10.0 mi SSE 3.5 mph - N/A   Clear